Skip Page Navigation
NASA JPL Caltech
NASA Logo - Jet Propulsion Laboratory + View the NASA Portal
+ Center for Near-Earth Object Studies
JPL Home Earth Solar System Stars & Galaxies Technology
JPL Solar System Dynamics
BODIES ORBITS EPHEMERIDES TOOLS PHYSICAL DATA DISCOVERY FAQ SITE MAP
JPL Small-Body Database Browser
Search: [ help ]  
86593 (2000 EX64)
Classification: Main-belt Asteroid          SPK-ID: 2086593
Ephemeris | Orbit Diagram | Orbital Elements | Mission Design | Physical Parameters | Discovery Circumstances | Close-Approach Data ]

[ show orbit diagram ]
Orbital Elements at Epoch 2459000.5 (2020-May-31.0) TDB
Reference: JPL 11 (heliocentric ecliptic J2000)
 Element Value Uncertainty (1-sigma)   Units 
e .1492536582706863 4.2299e-08  
a 2.369170016116447 1.1509e-08 au
q 2.015562724145847 9.7513e-08 au
i 4.694099075564254 6.6643e-06 deg
node 180.3314734978306 5.6547e-05 deg
peri 76.60734361778026 6.1366e-05 deg
M 135.1719644060002 2.3739e-05 deg
tp 2458500.376924917617
(2019-Jan-16.87692492)
8.74e-05 TDB
period 1331.964862838569
3.65
9.7055e-06
2.657e-08
d
yr
n .2702773999854614 1.9694e-09 deg/d
Q 2.722777308087048 1.3227e-08 au
  Orbit Determination Parameters
   # obs. used (total)      322  
   data-arc span      9638 days (26.39 yr)  
   first obs. used      1993-04-26  
   last obs. used      2019-09-15  
   planetary ephem.      DE431  
   SB-pert. ephem.      SB431-N16  
   condition code      0  
   norm. resid. RMS      .67644  
   source      ORB  
   producer      Otto Matic  
   solution date      2019-Sep-24 02:54:49  

Additional Information
 Earth MOID = 1.00707 au 
 Jupiter MOID = 2.33147 au 
 T_jup = 3.526 
[ show covariance matrix ]

Ephemeris | Orbit Diagram | Orbital Elements | Mission Design | Physical Parameters | Discovery Circumstances | Close-Approach Data ]

Physical Parameter Table
Parameter Symbol Value Units Sigma Reference Notes
absolute magnitude H 16.7   n/a MPO244840  

86593 (2000 EX64)          Discovered 2000-Mar-10 by LINEAR at Socorro
Reference: 20040830/Numbers.arcLast Updated: 2004-09-06

[ show close-approach data ]
Alternate Designations
 2000 EX64 = 2001 SR23 
Ephemeris | Orbit Diagram | Orbital Elements | Mission Design | Physical Parameters | Discovery Circumstances | Close-Approach Data ]
ABOUT SSD CREDITS/AWARDS PRIVACY/COPYRIGHT GLOSSARY LINKS
FirstGov 2020-Sep-29 15:28 UT
(server date/time)  
NASA Home Page
Site Manager:   Ryan S. Park
Webmaster  Alan B. Chamberlin